TimeAKDT,TemperatureF,Dew PointF,Humidity,Sea Level PressureIn,VisibilityMPH,Wind Direction,Wind SpeedMPH,Gust SpeedMPH,PrecipitationIn,Events,Conditions,WindDirDegrees,DateUTC
12:18 AM,44.6,44.6,100,30.16,4.0,SE,9.2,-,N/A,,Overcast,130,2013-04-18 08:18:00
12:28 AM,44.6,44.6,100,30.16,4.0,SE,8.1,-,N/A,,Overcast,140,2013-04-18 08:28:00
12:36 AM,44.6,44.6,100,30.16,4.0,SE,8.1,-,N/A,,Overcast,130,2013-04-18 08:36:00
12:53 AM,44.1,44.1,100,30.16,4.0,SE,9.2,-,N/A,,Overcast,130,2013-04-18 08:53:00
1:00 AM,44.6,44.6,100,30.15,2.5,SE,8.1,-,N/A,,Overcast,140,2013-04-18 09:00:00
1:53 AM,44.1,44.1,100,30.14,2.0,SE,10.4,-,0.01,,Overcast,140,2013-04-18 09:53:00
2:32 AM,44.6,44.6,100,30.14,1.8,SE,10.4,-,0.02,Rain,Light Rain,130,2013-04-18 10:32:00
2:43 AM,44.6,44.6,100,30.14,2.5,SE,13.8,20.7,0.02,Rain,Light Rain,130,2013-04-18 10:43:00
2:53 AM,44.1,44.1,100,30.14,2.5,SE,13.8,21.9,0.02,,Overcast,130,2013-04-18 10:53:00
3:26 AM,44.6,44.6,100,30.12,2.5,SE,8.1,-,0.01,Rain,Light Rain,140,2013-04-18 11:26:00
3:39 AM,44.6,44.6,100,30.12,2.5,SSE,8.1,-,0.01,,Overcast,150,2013-04-18 11:39:00
3:53 AM,44.1,44.1,100,30.12,2.0,SSE,5.8,-,0.02,,Overcast,150,2013-04-18 11:53:00
4:53 AM,44.1,44.1,100,30.11,2.0,SSE,4.6,-,0.01,Rain,Light Rain,160,2013-04-18 12:53:00
5:53 AM,43.0,43.0,100,30.09,2.5,South,3.5,-,0.03,Rain,Light Rain,180,2013-04-18 13:53:00
5:57 AM,42.8,42.8,100,30.09,2.5,SE,3.5,-,0.00,Rain,Light Rain,140,2013-04-18 13:57:00
6:53 AM,44.1,44.1,100,30.07,2.5,SSE,3.5,-,0.03,,Overcast,150,2013-04-18 14:53:00
7:53 AM,44.1,44.1,100,30.06,2.0,SE,11.5,-,0.02,Rain,Light Rain,130,2013-04-18 15:53:00
8:53 AM,44.1,44.1,100,30.04,2.0,SE,15.0,-,0.02,Rain,Light Rain,130,2013-04-18 16:53:00
9:46 AM,44.6,44.6,100,30.02,3.0,SE,11.5,-,0.03,Rain,Light Rain,140,2013-04-18 17:46:00
9:53 AM,45.0,45.0,100,30.03,3.0,SE,13.8,-,0.03,Rain,Light Rain,140,2013-04-18 17:53:00
10:53 AM,45.0,45.0,100,30.00,8.0,SE,10.4,-,0.06,Rain,Light Rain,140,2013-04-18 18:53:00
11:53 AM,46.0,46.0,100,29.98,7.0,SE,10.4,-,0.05,Rain,Light Rain,140,2013-04-18 19:53:00
12:53 PM,45.0,45.0,100,29.96,6.0,SE,10.4,-,0.06,Rain,Light Rain,140,2013-04-18 20:53:00
1:53 PM,45.0,45.0,100,29.95,4.0,SE,11.5,-,0.07,Rain,Light Rain,140,2013-04-18 21:53:00
2:53 PM,46.0,46.0,100,29.94,4.0,SE,11.5,-,0.05,Rain,Light Rain,140,2013-04-18 22:53:00
3:53 PM,46.0,46.0,100,29.92,4.0,SE,12.7,-,0.06,Rain,Light Rain,130,2013-04-18 23:53:00
4:53 PM,45.0,45.0,100,29.91,4.0,SE,8.1,-,0.07,Rain,Light Rain,140,2013-04-19 00:53:00
5:53 PM,45.0,44.1,97,29.90,4.0,North,8.1,16.1,0.04,Rain,Light Rain,350,2013-04-19 01:53:00
6:53 PM,44.1,44.1,100,29.89,10.0,NNW,12.7,-,0.04,Rain,Light Rain,330,2013-04-19 02:53:00
6:57 PM,44.6,44.6,100,29.89,10.0,NW,10.4,-,0.00,,Overcast,320,2013-04-19 02:57:00
7:53 PM,43.0,42.1,97,29.90,10.0,NW,9.2,-,0.00,,Overcast,310,2013-04-19 03:53:00
8:53 PM,41.0,41.0,100,29.91,4.0,NW,9.2,-,0.01,Rain,Light Rain,310,2013-04-19 04:53:00
9:13 PM,41.0,41.0,100,29.91,5.0,NW,9.2,-,0.00,Rain,Light Rain,310,2013-04-19 05:13:00
9:49 PM,41.0,39.2,93,29.92,10.0,WNW,10.4,16.1,0.01,Rain,Light Rain,300,2013-04-19 05:49:00
9:53 PM,41.0,39.0,93,29.93,10.0,WNW,10.4,-,0.01,Rain,Light Rain,300,2013-04-19 05:53:00
10:35 PM,39.2,39.2,100,29.93,10.0,NW,16.1,20.7,0.02,Rain,Light Rain,320,2013-04-19 06:35:00
10:53 PM,39.9,39.0,97,29.94,10.0,NW,10.4,-,0.02,Rain,Light Rain,320,2013-04-19 06:53:00
11:00 PM,39.2,37.4,93,29.94,10.0,NNW,11.5,-,0.00,Rain,Light Rain,330,2013-04-19 07:00:00
11:09 PM,39.2,37.4,93,29.94,10.0,NNW,10.4,-,0.00,,Overcast,330,2013-04-19 07:09:00
11:43 PM,39.2,39.2,100,29.94,10.0,NW,8.1,-,0.00,,Overcast,320,2013-04-19 07:43:00
11:53 PM,39.9,39.0,97,29.95,10.0,NW,8.1,-,0.00,,Overcast,310,2013-04-19 07:53:00